FLOCK 3P-1 (41967 NORAD) Tracking and Keplerian Element Data

This shows tracking and keplerian element data for the satellite.

Feedback or suggestion? Click here.




ElementValue
Catalog41967
NameFLOCK 3P-1
Epoch Orbit5527
Epoch Day45.61589917
Epoch Year2018
RAAN111.0331
Inclination97.4657
Eccentricity0.0009903
Argument of Perigee68.4245
Mean Anonmoly291.8046
Mean Motion15.23745132
Decay Rate2.346E-05
L11 41967U 17008V 18045.61589917 .00002346 00000-0 10048-3 0 9998
L22 41967 97.4657 111.0331 0009903 68.4245 291.8046 15.23745132 55279

Live tracking and technical data element details for FLOCK 3P-1 (NORAD 41967). FLOCK 3P-1 can be tracked NOW for your location showing map with azimuth and elevation plus other details from your city location.

Track the satellite on the map from your city or location and see movement details for azimuth, elevation, latitude, longitude, range, height, and movement on the map or in text.







IsCatalogInMostPopularTable: catalog: 41967, numindb: 110
Update: records affected: 1



GetName: 41967 FLOCK 3P-1

Hit Count: updated at: Mon, 12 Nov 2018 17:44:18 GMT